{"data":{"norad_id":57093,"intl_designator":"2023-088AX","name":"STARLINK-6229","alt_names":[],"object_type":"PAYLOAD","status":"ACTIVE","operator":null,"country":"US","launch_date":"2023-06-22","launch_site_code":"AFWTR","launch_vehicle":null,"mission":null,"orbit_class":"UNKNOWN","rcs_meters":null,"size_class":null,"mass_kg":null,"dimensions":null,"purposes":["comms"],"wikipedia_slug":null,"has_3d_model":false,"image_url":null,"decayed_at":null,"tle_current":{"epoch":"2026-09-19T23:16:20.393472Z","epoch_age_seconds":166820,"freshness":"FRESH","line1":"1 57093U 23088AX  26262.96968048 -.00005820  00000+0 -20200-3 0  9996","line2":"2 57093  43.0024  78.8697 0001643 254.9807 105.0863 15.27597973180213","mean_motion":15.27597973,"eccentricity":0.0001643,"inclination_deg":43.0024,"raan_deg":78.8697,"arg_perigee_deg":254.9807,"mean_anomaly_deg":105.0863,"bstar":-0.000202,"rev_number":18021,"period_min":94.265639615378,"perigee_km":481.86799490613,"apogee_km":484.12256297299,"semimajor_km":6861.1322789396,"source":"CELESTRAK","updated_at":"2026-09-21T09:00:33.557367Z"}}}